Location: Gajan
(43.0218°N, 1.1244°E)
Time: 02:21:04
(UTC+00:00)

Cosmos 2263 Rocket - Pass Details

Date: 22 April 2021
Orbit: 824 x 848 km, 71.0° (Epoch: 15 May)

Event Time Altitude Azimuth Distance (km) Brightness Sun altitude
Exits shadow 22:16:17 59° 20° (NNE) 954 2.5 -30.1°
Drops below altitude 10° 22:20:45 10° 24° (NNE) 2,435 5.0 -30.5°
Sets 22:23:11 0° 25° (NNE) 3,374 5.8 -30.7°
